THOR ABLESTAR DEB, 706

Orbit data source: Space-Track

THOR ABLESTAR DEB, 706 is space debris in LEO originally from a launch on Thu, 05 Dec 1963 UTC launched from the Air Force Western Test Range (AFWTR). Debris objects in space refer to the collection of defunct objects orbiting the Earth. Examples of debris include non-operational satellites, rocket bodies, and fragments generated from explosions, collisions, or faulty payload assembly.

Loading next visibility...
Identifier
706, 1963-049D
Orbit
LEO
Country
Flag of USUS
Related business
Manufacturer
Unknown
Mission
Spacecraft
Bus & Motor
Unknown
Mass
Unknown
Launch date (UTC)
1963-12-05 (62 years ago)
Launch vehicle
Unknown
Launch site
Air Force Western Test Range (AFWTR)
Object type
Payload
Rocket body
Debris
Shape & HBR
Unknown shape, 0.1 m
Radar Cross Section
Small (<0.1 m²)

Expand to show TLE details & history
Last TLE update: 11 hours ago

TLE from 11 hours ago
0 THOR ABLESTAR DEB
1   706U 63049D   26124.09361441  .00000254  00000-0  34579-3 0  9990
2   706  89.9168  73.4109 0025912 183.8170 193.0265 13.56599718 77337
Epoch: 2026-05-04T02:14Z
TLE epoch observation values (Epoch: 2026-05-04T02:14:48.285Z)
Latitude
16.76022°
Longitude
177.74688°
Altitude
1,069.169 km
Speed
7.309 km/s
True Right ascension
04h 53m 44s
True Declination
16° 40' 10"
Sunlit
Object was in daylight at epoch
Visualization orbit readout
Latitude
Unknown
Longitude
Unknown
Altitude
Unknown
Speed
Unknown
Apparent Right ascension
Unknown
Apparent Declination
Unknown
Sunlit
N/A
Visualization observer readout
Local Sidereal Time
20:49:34
Azimuth
Unknown
Elevation
Unknown
Doppler factor
Unknown
Orbital elements
Apogee altitude
1,064.351 km
Perigee altitude
1,025.88 km
Semi-major axis
7,423.252 km
Eccentricity
0.00259
Inclination
89.9168°
RAAN
73.4109°
Arg. of periapsis
183.817°
True anomaly
192.95978°
Mean anomaly
193.0265°
Eccentric anomaly
192.99312°
Mean motion
3.39353 °/min
Orbital period
106.08 mins
BSTAR
0.00034579
Loading maneuver chart data...
Computing Atmospheric mass density...
Loading historical data...
Loading historical data...
Loading historical data...
Loading historical data...
Loading historical data...
Loading historical data...
Loading historical data...

Documentation

Showing up to 5 results
|